Aérodrome :
LOGIN :

S'inscrire | Disclaimer

   EN    FR    IT 

 










Légende :    VFR   VFR Marginal   IFR   IFR Intensif   IFR Très Intensif
Visi : 
Plafond : 
>= 8 km
>= 3000ft
5 à 8 km
1000 à 3000 ft
1500m à 5 km
500 à 1000 ft
800 à 1500m
200 à 500 ft
< 800m
< 200 ft
Symboles :   Orages  Brouillard  Fortes neiges  Fortes précipitations  Vent > 20 kt
SIGMETs :   Divers  Orages  Givrage  Turbulence  Onde Orograph.  Cendres Volcan.







- Altitude de l'aérodrome : 117 ft
- Code IATA : NWI
- Voir les cartes d'approche


EGSH - Norwich

DERNIER METAR :
  • 181220Z 09011KT CAVOK 17/08 Q1025

METARs EXPIRÉS :
  • 181150Z 08010KT 060V120 CAVOK 17/08 Q1025 NOSIG
  • 181120Z 10009KT 060V130 CAVOK 17/08 Q1025 NOSIG
  • 181050Z 09009KT CAVOK 17/08 Q1025 NOSIG
  • 181020Z 09009KT 050V120 CAVOK 16/08 Q1025 NOSIG
  • 180950Z 08008KT 050V110 CAVOK 16/08 Q1025 NOSIG

TAF TAF EGSH
Valide du 18 à 12h jusqu'au 18 à 21h UTC


181105Z 1812/1821 08012KT CAVOK
ATIS : +44 1603 420 640
Pas de NOTAMs connus pour ce terrain.



MET'MAP, la Météo Aéronautique d'un coup d'oeil ! - Copyright ORBIFLY Décembre 2007 - Disclaimer

ORBIFLY MET'MAP TEAM :

Programmation & Développement : Alexandra Zaïnal
Conception & Développement : Baudouin d'Aumeries
Co-Programmation & Développement : Marc-Olivier Méhu
Soutien technique & logistique : Manuel Goepfert

Contact : metmap@orbifly.com




SOURCES & CREDITS :

   NOAA